Regional Weather Roundup
Issued by NWS

Home | Current Version | Previous Version | Graphics & Text | Print | Product List | Glossary On
Versions: 1 2 3 4 5 6 7 8 9 10 11 12 13 14 15 16 17 18 19 20 21 22 23 24 25 26 27 28 29 30 31 32 33 34 35 36 37 38 39 40 41 42 43 44 45 46 47 48 49 50
000
ASUS43 KLOT 232206
RWRIL

ILLINOIS REGIONAL WEATHER ROUNDUP
NATIONAL WEATHER SERVICE CHICAGO/ROMEOVILLE IL
400 PM CST SUN NOV 23 2014

NOTE: "FAIR" INDICATES FEW OR NO CLOUDS BELOW 12,000 FEET WITH NO
SIGNIFICANT WEATHER AND/OR OBSTRUCTIONS TO VISIBILITY.

* THESE STATIONS ARE NOT UNDER NWS QUALITY CONTROL. THEY ALSO MAY NOT
  REPORT WEATHER SUCH AS PRECIPITATION OR FOG.

ILZ001-002-007-009-015-016-024-232300-
NORTHWEST ILLINOIS

CITY           SKY/WX    TMP DP  RH WIND       PRES   REMARKS
MOLINE         LGT RAIN  52  51  97 S7        29.35F FOG
STERLING*      CLOUDY    50  46  87 SE8       29.40F
SAVANNA*       DRIZZLE   51  49  92 SE10      29.38F
$$

ILZ003-004-008-010-011-017-018-232300-
NORTH CENTRAL ILLINOIS

CITY           SKY/WX    TMP DP  RH WIND       PRES   REMARKS
ROCKFORD       LGT RAIN  49  47  93 SE12      29.44F FOG
FREEPORT*      DRIZZLE   48  47  97 SE10      29.42F
ROCHELLE*      LGT RAIN  48  47  97 SE12      29.42F
DE KALB*       CLOUDY    48  47  97 SE10      29.44F
PERU*          RAIN      51  49  93 SE15      29.41F
$$

ILZ005-006-012>014-019>023-232300-
NORTHEAST ILLINOIS

CITY           SKY/WX    TMP DP  RH WIND       PRES   REMARKS
CHICAGO-OHARE  LGT RAIN  50  48  93 SE12      29.46F FOG
CHICAGO-MIDWAY LGT RAIN  52  50  93 SE10      29.46F FOG
AURORA         LGT RAIN  51  48  89 SE13      29.44F FOG
LANSING*       RAIN      51  50  97 SE12      29.48F
JOLIET*        RAIN      50  49  96 S8        29.44F
WAUKEGAN       LGT RAIN  46  44  93 SE13      29.46F FOG
DUPAGE AIRPORT LGT RAIN  51  49  92 SE10      29.44F FOG
KANKAKEE*      RAIN      51  50  97 E8        29.45F
WHEELING       LGT RAIN  50  48  93 SE8       29.47F FOG
MORRIS*        RAIN      51  51 100 SE13      29.43F
ROMEOVILLE*    RAIN      50  50 100 S12       29.44F
NORTHERLY ISL    N/A     42  41  96 SE2         N/A
$$

LMZ740>746-232300-
SOUTHERN LAKE MICHIGAN

STATION/POSITION SKY/WX   TEMP    WIND        PRES    VSBY  WAVE
                          AIR SEA DIR/SP/G                  HT/PER
                          (F)     (DEG/KT/KT) (MB)    (MI)  (FT/S)
SOUTHERN BUOY              46 43  140/ 14/ 16  999.2F         2/ 4
WAUKEGAN HARBOR            42     170/  8/  9   N/A
HARRISON CRIB              46     130/ 17/ 19   N/A
BURNHAM HARBOR             43     130/  2/  8   N/A
CALUMET HARBOR             51     140/  7/ 13  997.2F
MICHIGAN CITY              51     120/ 12/ 16   N/A
$$

ILZ025>027-034>036-040-047-049-050-058-095>099-232300-
WEST-CENTRAL ILLINOIS

CITY           SKY/WX    TMP DP  RH WIND       PRES   REMARKS
QUINCY         LGT RAIN  53  52  96 S8        29.33F FOG
GALESBURG*     HVY RAIN  51  50  97 SE7       29.36F
MACOMB*        LGT RAIN  52  52  99 S9        29.37F
JACKSONVILLE*  RAIN      54  51  92 SE6       29.35F
PITTSFIELD*    CLOUDY    54  51  92 SE5       29.35F
$$

ILZ028>032-037-038-041>044-048-051>054-059>061-232300-
CENTRAL ILLINOIS

CITY           SKY/WX    TMP DP  RH WIND       PRES   REMARKS
PONTIAC        LGT RAIN  51  51  97 SE13      29.43F
BLOOMINGTON    RAIN      50  50 100 SE17      29.40F FOG
DECATUR        LGT RAIN  51  32  48 SE9       29.39F
PEORIA         LGT RAIN  52  49  89 SE9       29.38F FOG
LACON*         RAIN      50  48  93 SE9       29.39F
LINCOLN*       HVY RAIN  51  50  95 SE9       29.38F
SPRINGFIELD    LGT RAIN  52  51  97 SE9       29.37F
TAYLORVILLE    LGT RAIN  50  48  93 SE12      29.36F
$$

ILZ033-039-045-046-055>057-062-063-232300-
EAST-CENTRAL ILLINOIS

CITY           SKY/WX    TMP DP  RH WIND       PRES   REMARKS
CHAMPAIGN      RAIN      51  50  96 SE12      29.42F FOG
DANVILLE*      RAIN      51  50  99 SE7       29.42F
RANTOUL*       RAIN      52  51  97 SE12      29.42F
MATTOON        RAIN      51  50  96 SE9       29.40F
PARIS*         LGT RAIN  51  51 100 E6        29.44F
$$

ILZ079-100>102-232300-
SOUTHWEST ILLINOIS

CITY           SKY/WX    TMP DP  RH WIND       PRES   REMARKS
ALTON          RAIN      52  52 100 SE9       29.35F FOG
BELLEVILLE     LGT RAIN  53  53 100 E5        29.34F FOG
CAHOKIA*       LGT RAIN  55  53  93 SE6       29.34F FOG
SPARTA*        RAIN      52  51  97 SE8       29.35F
$$

ILZ064>066-069>071-074>076-080>082-084>086-088>090-092>094-232300-
SOUTH-CENTRAL ILLINOIS

CITY           SKY/WX    TMP DP  RH WIND       PRES   REMARKS
CARBONDALE     RAIN      53  52  96 E3        29.35F FOG
CAIRO*         HVY RAIN  57  54  89 NW7       29.33F
EFFINGHAM*     CLOUDY    51  49  92 SE9       29.39F
MARION         LGT RAIN  55  54  94 SE9       29.35F
MT. VERNON     CLOUDY    54  48  82 E5        29.37F
CENTRALIA*     RAIN      52  50  92 SE6       29.36F
SALEM*         RAIN      54  52  93 E6        29.37F
METROPOLIS*    HVY RAIN  56  56 100 E5        29.33F
$$

ILZ067-068-072-073-078-083-087-091-232300-
SOUTHEAST ILLINOIS

CITY           SKY/WX    TMP DP  RH WIND       PRES   REMARKS
LAWRENCEVILLE  LGT RAIN  53  52  96 E7        29.42F FOG
FLORA*         LGT RAIN  51  51  99 E6        29.39F
FAIRFIELD*     RAIN      53  52  98 E5        29.37F
HARRISBURG*    HVY RAIN  54  54 100 E7        29.37F
ROBINSON*      HVY RAIN  52  51  98 E6        29.43F
CARMI*         RAIN      55  55 100 E9        29.37F
$$

ABBREVIATIONS USED IN REMARKS
   TC - TEMPERATURE IN CELSIUS
  WCI - WIND CHILL INDEX
   HX - HEAT INDEX
  VSB - VISIBILITY
$$




USA.gov is the U.S. government's official web portal to all federal, state and local government web resources and services.